J Percy Priest Observed Data For Previous 48 Hours

Caption
Day and Hour Reservoir Elevation (behind dam)* Tailwater Elevation (below dam)* Average Hourly Discharge*
1/17/2018 1 AM CST 483.31 389.68 -999
1/17/2018 2 AM CST 483.32 389.45 -999
1/17/2018 3 AM CST 483.32 389.23 -999
1/17/2018 4 AM CST 483.33 389.00 -999
1/17/2018 5 AM CST 483.33 388.77 0
1/17/2018 6 AM CST 483.33 389.14 0
1/17/2018 7 AM CST 483.28 395.28 4,700
1/17/2018 8 AM CST 483.25 395.65 4,700
1/17/2018 9 AM CST 483.23 396.01 4,700
1/17/2018 10 AM CST 483.25 391.87 0
1/17/2018 11 AM CST 483.24 391.31 0
1/17/2018 12 PM CST 483.24 390.74 0
1/17/2018 1 PM CST 483.23 390.18 0
1/17/2018 2 PM CST 483.24 389.94 0
1/17/2018 3 PM CST 483.24 389.67 0
1/17/2018 4 PM CST 483.24 389.29 0
1/17/2018 5 PM CST 483.25 389.07 0
1/17/2018 6 PM CST 483.27 388.90 0
1/17/2018 7 PM CST 483.26 389.74 0
1/17/2018 8 PM CST 483.26 389.80 0
1/17/2018 9 PM CST 483.27 390.00 0
1/17/2018 10 PM CST 483.27 390.08 0
1/17/2018 11 PM CST 483.28 390.21 0
1/18/2018 12 AM CST 483.28 389.94 0
1/18/2018 1 AM CST 483.28 389.05 0
1/18/2018 2 AM CST 483.29 388.57 0
1/18/2018 3 AM CST 483.29 388.55 0
1/18/2018 4 AM CST 483.30 388.64 0
1/18/2018 5 AM CST 483.30 389.04 0
1/18/2018 6 AM CST 483.30 389.20 0
1/18/2018 7 AM CST 483.29 395.20 4,600
1/18/2018 8 AM CST 483.29 395.61 4,600
1/18/2018 9 AM CST 483.28 395.99 4,600
1/18/2018 10 AM CST 483.27 391.79 0
1/18/2018 11 AM CST 483.27 390.81 0
1/18/2018 12 PM CST 483.26 390.19 0
1/18/2018 1 PM CST 483.22 390.17 0
1/18/2018 2 PM CST 483.21 390.02 0
1/18/2018 3 PM CST 483.21 389.98 0
1/18/2018 4 PM CST 483.23 389.52 0
1/18/2018 5 PM CST 483.23 389.18 0
1/18/2018 6 PM CST 483.23 389.38 0
1/18/2018 7 PM CST 483.23 389.57 0
1/18/2018 8 PM CST 483.22 389.58 0
1/18/2018 9 PM CST 483.24 389.74 0
1/18/2018 10 PM CST 483.23 389.88 0

Elevations are in feet above sea level. Discharges are in cubic feet per second and are reported at the end of the hour.